Type in a Steem user's name to view a breakdown of their voting activity.
Data is currently available for 60901 active accounts.
Data period: 14-09-2018 - 19-09-2018.

sharinglife
Vote Rank #: 193
Score: 78.2051
% of Self-Votes: 0%
Top Category: photography (114)
Vote Counts
# Accounts Voted For319
Up-Votes Made456
Down-Votes Made0
Vote Values
Total Value of Votes Made (SBD)$0.013
Vote Value To Authors - inc. Self-Votes (SBD)$0.012
Vote Value to Curators (SBD)$0.002
Value of Self-Votes (SBD)$0
Value of Votes for Others (SBD)$0.013
Reputations Voted For
0-25 Rep. Accounts Voted For7 (1.54%)
25-50 Rep. Accounts Voted For193 (42.32%)
50-75 Rep. Accounts Voted For266 (58.33%)
75+ Rep. Accounts Voted For2 (0.44%)
Categories Voted ForVotes CastVote Value (SBD)

Votes Made By This Account For Posts & Comments

Timestamp
(Click to View Post/Comment)
AuthorCategoriesNET # of Votes (+/-)Total Payout (SBD)This Vote's Payout %Value To Author (SBD)Value To Curators (SBD)Vote Value (SBD)Author Reputation
12018-09-18 22:45:51allanlongphotography, life26$00%$0$0$070.267
22018-09-18 22:45:39cryptogangzcrypto, vlog, info, trading, blog154$00%$0$0$059.307
32018-09-18 22:45:30sanjim69technology, app4$00%$0$0$059.881
42018-09-18 22:45:18susanli3769utopian-io, translations, blog105$00%$0$0$067.238
52018-09-18 22:45:12tezmelprose, poetry, art, freewrite, teamgirlpowa, partiko20$00%$0$0$059.694
62018-09-18 22:35:54shilaphotography, treetuesday, busy, nature, steemit-spanish11$00.02%$0$0$047.322
72018-09-18 22:35:06sh1kr, steem, interesteem, jyinvest, jjangjjangman8$00.02%$0$0$047.313
82018-09-18 22:33:24yasutasteem1$0100%$0$0$062.38
92018-09-18 22:32:18pele23landscapephotography, photography, nature, travel, busy45$00.03%$0$0$061.898
102018-09-18 20:43:45themanwithnonamesteemit2$00.16%$0$0$059.231
112018-09-18 20:34:51surfermarlyteamwork, security, steem, steemit, community67$00%$0$0$073.482
122018-09-18 20:33:12offgridlifepartiko12$00.01%$0$0$064.523
132018-09-18 20:32:03zeeshannaqvi72daily, activities, walking, shopping, , actifit42$0.1970.03%$0$0$043.639
142018-09-18 19:50:09hirshansteemit, thought, life3$07.72%$0$0$038.061
152018-09-18 19:38:00matt-asteemit2$0.8450.01%$0$0$064.78
162018-09-18 19:37:45matt-aeos2$0.0260.21%$0$0$064.78
172018-09-18 19:37:36matt-afunny8$1.6160%$0$0$064.78
182018-09-18 19:37:27matt-apicture2$00.04%$0$0$064.78
192018-09-18 19:35:15tussar11goldenhourphotography, pc-magichour, photographs, qurator, esteem29$00.01%$0$0$054.626
202018-09-18 19:30:57artwithfloart, esteem, dailysketch, drawing, creative14$00%$0$0$063.158
212018-09-18 19:28:39radianarghaspitball, decentralized, student, economy, earnmoney346$00%$0$0$041.476
222018-09-18 19:27:54crypto-reportcrypto-report, cryptocurrency, crypto, bitcoin21$00%$0$0$060.3
232018-09-18 19:27:36see.feel.writeart, curation, blog, review, busy83$00%$0$0$055.353
242018-09-18 19:25:21yetarasphotocircle, magicalhourphotography, photography, esteem, nature29$00%$0$0$071.549
252018-09-18 19:25:15yougotsnekkedcuration, community, communityproject, yougotsnekked, discord29$00%$0$0$049.813
262018-09-18 19:23:36apnigrichlandscapephotography, photofeed, photocircle, esteem, esteem-university24$00.01%$0$0$063.309
272018-09-18 19:22:30buzzbeergeekbeer, beersaturday, busy, whalepower, cryptocurrency136$00%$0$0$072.467
282018-09-18 19:22:24inaturenature82$00%$0$0$065.793
292018-09-18 19:21:45travelfeedtravelfeed, steempress, travelfeeddaily, travel, asia108$00%$0$0$061.04
302018-09-18 19:20:51jaybirdsteemitsandwichcontest, food, photography, photo, contest21$00%$0$0$067.771
312018-09-18 19:20:33gavvetfire, winter, arson88$00%$0$0$077.795
322018-09-18 19:20:21rasel5photography, picture, photo, travel, nature18$00%$0$0$058.298
332018-09-18 16:01:12sushant769mgsc, steemit, steem, busy, railway, steepshot24$00.63%$0$0$039.523
342018-09-18 15:59:27etcmikemoney, economy, asia, debt, gold93$30.5970%$0$0$072.782
352018-09-18 14:55:33boomerangsteembasicincome0$00%$0$0$053.895
362018-09-18 14:46:21rhyscncryptocurrency, money, investing, steem, life16$00.01%$0$0$047.393
372018-09-18 14:46:06ammoniteart, ice, sculpture, sndbox, artzone47$2.9170%$0$0$058.616
382018-09-18 14:45:48katteasistravel, photography, smartphonephotography, landsccape, busy6$00.01%$0$0$061.947
392018-09-18 14:44:51yaanivapejibusy, steemit, steem-ua, wafrica, nigeria16$00.01%$0$0$061.165
402018-09-18 14:44:30viraldromesteemit, steem, crypto, cryptocurrency, trybe36$00%$0$0$064.707
412018-09-18 14:43:12seabluesteempress, geek, journal, linux, linuxmint10$00.01%$0$0$063.383
422018-09-18 14:42:12canon12technologies, medias, life2$045.35%$0$0$030.656
432018-09-18 14:35:51momzillancpoetry, artzone, steemschools, poetsunited, artopia16$0.0840.07%$0$0$049.514
442018-09-18 14:22:09cosmiccrimesarchitecturalphotography, photography, photo, life, gothic15$00.18%$0$0$042.868
452018-09-18 14:21:51blocktradesblocktrades, steem, cryptocurrency, crypto-news266$157.8190%$0$0$071.412
462018-09-18 12:28:51playdicedaily, upvote, fun, gamble, giveaway81$00.02%$0$0$058.561
472018-09-18 12:28:42kyjukr, steem-ua, jjangjjangman, busy, agriculture32$00%$0$0$058.877
482018-09-18 12:27:54needleworkmondayneedleworkmonday, challenge, community, art, busy30$00.01%$0$0$047.194
492018-09-18 12:27:27coldsteemmovies, wintersbone, moviereviews, coldsteemmovies14$00.01%$0$0$062.072
502018-09-18 12:27:09jungwatercolorserbiacontest, colorfulphotography, photography, nature, teamserbia25$00.01%$0$0$061.165
512018-09-18 12:26:30andyhoffmanandyhoffman, bitcoin, cryptocurrency, ethereum, bhrodium13$00.01%$0$0$059.527
522018-09-18 12:26:24baibouathai, esteem, ocd-resteem, esteemapp, life104$00%$0$0$057.04
532018-09-18 12:26:12lightflareslandscapephotography, ocean, sea, beach, photography5$00.12%$0$0$041.335
542018-09-18 12:26:00audreyclaireteammalaysia, steemxp, steemit, fruit, sabah, partiko55$00.01%$0$0$057.289
552018-09-18 12:22:45gd007appics2$0.0380.17%$0$0$047.866
562018-09-18 12:22:30gd007health2$012.03%$0$0$047.866
572018-09-18 12:19:54chuimuibusy1$0100%$0$0$040.923
582018-09-18 12:18:57towilmaszphotography, pl-fotografia, nature, landscape9$0.0280.22%$0$0$043.88
592018-09-18 12:18:30reberglove, life, shopping, breakup, prime2$0.020.36%$0$0$039.859
602018-09-18 12:17:39allinduesseldorfphotography, travel, life, city, architecture9$00.07%$0$0$053.496
612018-09-18 12:17:06technoswant, mgsc, life, my-quote, quotes6$0.0210.37%$0$0$036.915
622018-09-18 12:16:54mrunalinipetals, rosesopenweekend, naturephotography, flowers, life26$0.1220.07%$0$0$043.541
632018-09-18 12:16:39annephilbrickcolorchallenge, photography, tuesday, nature, orange10$00.02%$0$0$045.61
642018-09-18 12:16:15annephilbrickphotography2$00.32%$0$0$045.61
652018-09-18 12:16:12annephilbrickthursdayreflections2$01.34%$0$0$045.61
662018-09-18 12:15:57annephilbrickopenmic2$00.26%$0$0$045.61
672018-09-18 12:15:51annephilbrickcolorchallenge1$0100%$0$0$045.61
682018-09-18 07:18:51deepwebbusy5$00.05%$0$0$047.673
692018-09-18 07:17:45unlonely-soulphotography, busy, nature, flowers, petals22$00.01%$0$0$066.495
702018-09-18 07:17:03docsmithphotography, life, travel, nature, croatia13$00.02%$0$0$058.797
712018-09-18 07:16:42rahulsingh25843life, india18$00%$0$0$065.113
722018-09-18 07:16:27anilkumar125469photography, life27$00%$0$0$065.287
732018-09-18 07:16:18thatkidsblackportraitcontest, photofeed, blog, life8$00%$0$0$057.967
742018-09-18 07:16:12girlbeautyphotography, nature, life, flowers, summer21$00%$0$0$066.485
752018-09-18 07:16:00welshstackerholiday, travel, butlins, teamwales, staycation9$00%$0$0$062.96
762018-09-18 07:15:51alexinphotography, nature, autumn, life, blog42$00%$0$0$058.316
772018-09-18 07:14:51slayerkmdtubedaily, onelovedtube, ddaily, vlog, dtube23$00%$0$0$066.126
782018-09-18 07:14:45voltashru, food, busy31$00%$0$0$059.504
792018-09-18 07:14:36chaochaobusy3$00.06%$0$0$043.21
802018-09-18 07:13:57laysmoney, news, politics33$00%$0$0$067.1
812018-09-18 07:13:27andrutodlike, dlike-video, video, andruto, child6$00.13%$0$0$051.789
822018-09-18 07:13:18alinabarbucolorchallenge, photography, foodphotography, dessert20$00.05%$0$0$059.842
832018-09-18 07:12:57fabianamisurban, exploring, abandoned, watchtower, fortnite, danger, old, dtube, dtubedaily, heights, steepshot47$00%$0$0$050.478
842018-09-18 07:12:24oldtimerphotography, nature, blog, life, slovenia115$00%$0$0$071.998
852018-09-18 07:11:51lpsapkotaphoto8$03.03%$0$0$035.656
862018-09-18 07:09:39brianhphotosmacrophotography, macro, esteem, photofeed, photography18$00.01%$0$0$055.961
872018-09-18 07:08:39fernwehninjatasteem, tasteem-intl, blog, review, philippines, cebu62$00%$0$0$062.498
882018-09-18 07:07:45khanza.auliaphotography3$00.08%$0$0$059.134
892018-09-18 07:06:18kelly12food2$01.23%$0$0$042.423
902018-09-18 07:05:27kelly12foto, madrid, belleza29$0.0390.23%$0$0$042.423
912018-09-18 06:39:21technosmgsc, ansc, life, beauty, nature5$00.11%$0$0$036.915
922018-09-18 06:39:06harrisshirleyssphotography, blog, life7$00%$0$0$036.169
932018-09-18 06:38:45najlepartiko11$0.0220.43%$0$0$032.717
942018-09-18 06:38:24kelly12madrid, spain, palacio, real31$0.0710.14%$0$0$042.423
952018-09-18 06:38:21kelly12cocina, pure, de, espinacas, saludable37$0.0950.11%$0$0$042.423
962018-09-18 06:37:06khanza.aulialife, motivation, indonesia, writing, blog85$00%$0$0$059.134
972018-09-18 06:36:48allinduesseldorfphotography, travel, life, city, architecture9$00.08%$0$0$053.496
982018-09-18 06:18:42joinklkumreanimalphotography, nature, incect, life, colorfulphotography9$01.03%$0$0$033.558
992018-09-18 06:18:24bilaltajphotography2$013.05%$0$0$033.505
1002018-09-18 06:16:00vijaybphotography3$00.19%$0$0$037.944
1012018-09-18 06:15:21najlepartiko11$00.46%$0$0$032.717
1022018-09-18 06:15:06technosmgsc, want, life, quotes7$01.15%$0$0$036.915
1032018-09-18 06:14:45najlepartiko6$01.03%$0$0$032.717
1042018-09-18 05:34:48peteaturnerfeeling1$0100%$0$0$037.783
1052018-09-18 04:16:12vijaybshadowphoto, photography, new, blog, life18$00.11%$0$0$037.944
1062018-09-18 04:14:42yeheyyehey, ai, upvote, steem, shares, helping, authors, photographer, content15$00.01%$0$0$061.714
1072018-09-18 04:07:21sharinglifemotivation, beauty, adsactly, creativity, sharinglife5$06.46%$0$0$043.647
1082018-09-18 03:38:48annephilbrickphotography, nature, life, gardening, flower9$00.36%$0$0$045.61
1092018-09-18 03:38:27mintubananature1$0100%$0$0$040.351
1102018-09-18 03:30:57hrissmactifit, writing, running, citylife, smartphonephotography29$00.01%$0$0$057.411
1112018-09-18 03:30:09qualitymemesqualitymemes, meme, steemitlabs2$00.03%$0$0$058.367
1122018-09-18 03:30:00sonki999kr-gazua, kr, busy, jjangjjangman50$00%$0$0$063.753
1132018-09-18 03:29:54inna-worldfood, photography, life, ua, esteem45$00.01%$0$0$053.558
1142018-09-18 03:29:15rudyardcatlingbusy, upvote, writing, poetry, haiku19$00%$0$0$058.534
1152018-09-18 03:28:45xabihardfork20, steem, steemit, blockchain, busy12$00.02%$0$0$058.304
1162018-09-18 03:28:36ricky.goldhuskyprank4$00.01%$0$0$062.695
1172018-09-18 03:28:27zulhazmiyesteem, food, artzone, wafrica, steemthat10$00%$0$0$035.851
1182018-09-18 03:27:54coinbaogaocn, coinbaogao18$00.01%$0$0$060.057
1192018-09-18 03:27:27winniexcn, cn-voice, music32$00.01%$0$0$061.594
1202018-09-18 02:15:15wannissteem, esteem, smartsteem, mspsteem, aceh16$00.14%$0$0$046.659
1212018-09-18 02:14:03biplobsslife, cryptocurrency, photography, animals, blog4$00.88%$0$0$046.086
1222018-09-18 02:13:24aweberphotofeed, photography, photomag, photocircle, landscapephotography13$00%$0$0$062.817
1232018-09-18 02:12:18carolinmatthiedeutsch, photography, steemit, youtube, video52$00%$0$0$057.613
1242018-09-18 02:10:15dieneuenphotography, travel, life, city, architecture15$0.1620.09%$0$0$053.517
1252018-09-18 02:09:00roundbeargamesblog, story, steemit, life, esteem166$3.7050%$0$0$061.316
1262018-09-18 02:08:30david777111blog, story, writing, store, review49$00.03%$0$0$055.469
1272018-09-18 02:08:18visterhookbusy1$0100%$0$0$062.896
1282018-09-18 02:07:42rosa2810fotos, flores, rosas, naturaleza24$0.080.18%$0$0$036.061
1292018-09-18 02:07:12annephilbricklife, family, photography, love, happy7$00.6%$0$0$045.61
1302018-09-18 02:07:06annephilbrickphotography, nature, life, garden, outdoorphotography10$01.02%$0$0$045.61
1312018-09-17 07:47:42allinduesseldorfphotography, travel, life, city, architecture9$0.1190.05%$0$0$053.496
1322018-09-17 07:36:36jhoniesteem, portraitphotography, steem, steemhq, whalepower64$1.4170%$0$0$053.113
1332018-09-17 07:21:12mnallicaphotofeed, photomag, ocd-resteem, photography, art37$0.6420.01%$0$0$058.863
1342018-09-17 07:12:03yadamaniartjapanese, art, event, handmade, busy34$00%$0$0$069.763
1352018-09-17 07:11:24avinatr, az, edebiyat, kryptonia, mspsteem243$00%$0$0$056.604
1362018-09-17 07:04:39indrajeet1992mgsc2$00.94%$0$0$055.511
1372018-09-17 07:04:00vijaybseventydaysblacknwhite3$00.42%$0$0$037.944
1382018-09-17 06:24:45grow23busy3$02.82%$0$0$031.691
1392018-09-17 06:24:12moniroyflowers, esteem, photography, esteemapp, blog8$00%$0$0$053.427
1402018-09-17 06:16:18headcornerdlive4$0.0280.2%$0$0$054.754
1412018-09-17 06:16:12hafizullahdlive3$00.4%$0$0$060.649
1422018-09-17 06:15:54juantveoficialmusic1$0100%$0$0$033.925
1432018-09-17 06:15:48alborz46dlive1$0100%$0$0$026.478
1442018-09-17 06:15:27thetroublenotesdlive, dlive-video, Music, music, violin, travel, italy, streets, streetmusic, art, video, dlivestars, dlivestar248$4.7410%$0$0$059.758
1452018-09-17 06:15:12soannasteemstem, science, medicine, english, ita27$00.01%$0$0$049.904
1462018-09-17 06:14:27mintubanaphotography1$0100%$0$0$040.351
1472018-09-17 05:28:39sharinglifeculture2$09.14%$0$0$043.647
1482018-09-17 04:55:18soysilverioart, conceptart, lovecraft, digitalart, illustration6$00.12%$0$0$035.499
1492018-09-17 04:39:54borepsteinnaturephotography, nature, mushrooms, photography, massachusetts, newengland, steepshot117$00%$0$0$068.978
1502018-09-17 04:39:39curatorcatsteem, power-up, cats, investing, dpet23$00.02%$0$0$055.107
1512018-09-17 03:53:36lyubovbarphotography, nature, busy, travel, life23$00%$0$0$072.287
1522018-09-17 03:43:54victorrojas4photography, superhero, favourite, life, steepshot43$0.1270.05%$0$0$051.166
1532018-09-17 03:43:21wstanley226photograph, photo, life, snaol, partiko2$012.63%$0$0$058.416
1542018-09-17 03:39:36bringwriting, life, blog, cn-curation, cn17$00.02%$0$0$063.256
1552018-09-17 03:24:54cosmiccrimesphotography, photo, outdoors, parks, garden14$0.0480.13%$0$0$042.868
1562018-09-17 03:24:42cosmiccrimesphotography, photo, life, outdoors, sports10$0.0210.3%$0$0$042.868
1572018-09-17 03:24:09travelingstoriesphotocircle1$0100%$0$0$054.238
1582018-09-17 03:23:42alienprincessart1$0100%$0$0$023.46
1592018-09-17 03:22:39annephilbrickhaiku2$04.11%$0$0$045.61
1602018-09-17 03:22:21annephilbrickbee2$02.1%$0$0$045.61
1612018-09-17 01:13:36unhorsepower777philippines, pilipinas, travel, photography, random8$00.01%$0$0$068.953
1622018-09-17 01:12:33cannurationdlike, dlike-cannabis, cannabis, canada, legalization38$00.01%$0$0$055.156
1632018-09-17 01:03:33armandolnrssteempress, artzone, classical-music, art, music29$00.01%$0$0$050.891
1642018-09-17 01:02:15misesandrothbardeconomics, mises, rothbard, freedom, currency11$00%$0$0$056.367
1652018-09-17 01:02:00steemviewerstory, motivation, writing, life4$06.54%$0$0$038.419
1662018-09-17 00:59:33pinkspectrematerialscience, biking, alloys34$00%$0$0$072.157
1672018-09-17 00:58:48vinzie1steemhunt, game, steampowered, strategy, shirogames250$00.03%$0$0$060.359
1682018-09-17 00:58:06victorrojas4dlive, dlive-video, Lifestyle, dlive, dlive-video, laugh , spanish, kryptonia50$00.02%$0$0$051.166
1692018-09-17 00:57:30yuki-neepoetry, busy, kryptonia, life, nature19$00%$0$0$055.584
1702018-09-17 00:57:21elvientophotography12$00%$0$0$064.076
1712018-09-17 00:52:30xcountytravelerstravelfeed, goldengatebridge, california, tears53$00.02%$0$0$052.572
1722018-09-17 00:41:51labradorpuppiescutestlabs3$00.01%$0$0$067.149
1732018-09-17 00:39:24upvotebankcomment1$0100%$0$0$057.24
1742018-09-16 23:02:30yyesmenkr, kr-coin, jjangjjangman, busy, kr-newbie9$0.2660.02%$0$0$053.506
1752018-09-16 23:02:18fitbusinessmansex, sexy, fitbusinessman, fbm, fx, forex, foreignexchange, trading, traders, trade, signals, currency, currencies, photography, steemit, art, bitcoin, cryptocurrency, steem, crypto, steepshot17$00.27%$0$0$055.333
1762018-09-16 23:01:39mizdaismotivation, life, stach, wafrica, bigwaves85$00.02%$0$0$053.856
1772018-09-16 23:01:36babyincinsteemmonsters, crypto, busy, steem, giveaway25$00%$0$0$052.642
1782018-09-16 22:53:30michelnillesphotography, foodphotography, food, vegan, vegetarian8$00.05%$0$0$065.212
1792018-09-16 21:31:03coldhaircn2$0.2470.02%$0$0$065.8
1802018-09-16 21:30:48coldhaircn2$0.2420.02%$0$0$065.8
1812018-09-16 21:30:30amazinggocn1$0100%$0$0$011.757
1822018-09-16 21:29:30steven-patrickmonomad, monochromes, photography, goldenhourphotography, photo49$00%$0$0$061.863
1832018-09-16 20:07:15kamrunnaharbusy1$0100%$0$0$045.81
1842018-09-16 20:06:21nadjetteflowers, nature, photography, beautiful, blog5$00.86%$0$0$038.43
1852018-09-16 19:38:12shenchensucccn-shui, canada, life, partiko49$1.8160%$0$0$064.254
1862018-09-16 19:31:12sharinglifemotivation, beauty, adsactly, creativity, sharinglife9$00.43%$0$0$043.647
1872018-09-16 19:22:12jesuslnrsopenmic, spanish, cervantes, artzone, classical-music29$00.06%$0$0$051.096
1882018-09-16 19:22:03goofygrapesfunny, joy, life, fun, lol22$00.19%$0$0$050.713
1892018-09-16 19:21:33tag2017discovery, egypt, archaeological, arab47$0.0410.15%$0$0$061.573
1902018-09-16 19:21:03arrowqueenbusy, life, blog, writing9$00.01%$0$0$056.124
1912018-09-16 19:20:45espoemblog, iamutopian, italy, travel, meetup81$00%$0$0$066.64
1922018-09-16 19:20:30tarazkpphilosophy, photography, family, future, life88$00%$0$0$073.178
1932018-09-16 19:20:03o07dtube, steemmonsters, life, mallsballers, dtube47$6.0620%$0$0$064.261
1942018-09-16 19:19:57steemit-italiasteemit-italia, c-squared, c-cubed, ita, steemcommunity18$00.03%$0$0$056.542
1952018-09-16 19:19:33samesdlike, dlike-bitcoin, crypto, cryptocurrency, adoption185$00%$0$0$060.06
1962018-09-16 19:19:27moniqueabbadiedsound, music, dsound-cover, dsound-original, liveperformance, recording34$00%$0$0$060.948
1972018-09-16 19:18:39mcsammpromo-steem, steemit, girlsfoundation, wafrica, ghana43$00.01%$0$0$064.377
1982018-09-16 19:17:51jaybirdsteemitsandwichcontest, photography, food, photo, art38$00%$0$0$067.771
1992018-09-16 19:17:30avinatr, az, edebiyat, kryptonia, cointurk260$00%$0$0$056.604
2002018-09-16 19:17:18machhouresteem, motivation, life, tips, love7$00.12%$0$0$060.944
2012018-09-16 19:15:42kadjarsteempress, life, blog, tr, writing129$00%$0$0$052.091
2022018-09-16 19:12:54joetunexbusy, goldenhourphotography, sunset, minnowuprising, wafrica11$00.03%$0$0$056.953
2032018-09-16 19:05:06david777111winter, firewood, story, writing, blog40$0.2050.04%$0$0$055.469
2042018-09-16 19:04:54visterhookbusy, photo, photography, nature, art94$39.0790%$0$0$062.896
2052018-09-16 19:04:48zein0401photography, photofeed, partiko, pets, cats11$0.0250.33%$0$0$039.289
2062018-09-16 19:04:18raselhosensports, news, asiacup20181$0100%$0$0$038.461
2072018-09-16 19:04:00nadjettephotography, life, human, blog, steem7$00.96%$0$0$038.43
2082018-09-16 17:21:42supriyagadefoodphotography, photography, food, healthy, steemjet1$0100%$0$0$041.42
2092018-09-16 16:57:39timcliffsteem, cryptocurrency, investing, marketing, money1300$25.5530%$0$0$073.232
2102018-09-16 16:56:30mj46353mohithelp1$0100%$0$0$024.081
2112018-09-16 16:56:12insomniacskbusy2$09.77%$0$0$027.512
2122018-09-16 16:55:36mintubanaphotography, flower, partiko26$0.3120.03%$0$0$040.351
2132018-09-16 13:56:12mhm-philippinescolorchallenge2$030.77%$0$0$060.906
2142018-09-16 13:56:06mhm-philippinescolorchallenge2$032.92%$0$0$060.906
2152018-09-16 13:55:27mintubanaphotography2$03.38%$0$0$040.351
2162018-09-16 13:54:21visterhookbusy1$0100%$0$0$062.896
2172018-09-16 13:54:06nadjettephotography, life, tree, blog, steem6$00.46%$0$0$038.43
2182018-09-16 13:47:39nadjettephotography, life, africa, steem, blog10$00.39%$0$0$038.43
2192018-09-16 13:47:15annephilbrickphotography, animal, nature, life, squirrel11$0.0810.1%$0$0$045.61
2202018-09-16 13:47:00towilmaszphotography, pl-fotografia, nature, landscape7$0.0250.3%$0$0$043.88
2212018-09-16 13:46:48towilmaszphotography, pl-fotografia, nature, landscape15$0.6770.01%$0$0$043.88
2222018-09-16 13:45:30omoriomoricrypto, money, blockchain3$09.01%$0$0$017.795
2232018-09-16 09:42:18jasonrusselllife, photography, canon5d4, steepshot30$0.4130.01%$0$0$066.615
2242018-09-16 09:33:42costanzabetting, sbc, busy, soccer, sports74$3.5350%$0$0$061.8
2252018-09-16 09:33:21oldstrongmanhealth18$0.5990.01%$0$0$060.636
2262018-09-16 09:32:30soohyeongkvoting-back43$5.2690%$0$0$063.482
2272018-09-16 09:23:27mesdmania, news, hurricane, conspiracy, dmania-wtf10$0.7550.01%$0$0$062.497
2282018-09-16 09:21:30positivesteemua, teammalaysia, photography, celebration, partiko19$6.0790%$0$0$065.449
2292018-09-16 09:20:45pyskr, economy, finance, coinkorea28$00%$0$0$066.758
2302018-09-16 09:20:15czechglobalhoststravel, prague, contest, czechrepublic, photo52$11.9430%$0$0$075.218
2312018-09-16 09:20:06kissblogsweekend, foods, cebu, steem, philippines112$0.3020.02%$0$0$041.494
2322018-09-16 09:19:24beckmanphotography14$2.7210%$0$0$063.263
2332018-09-16 09:19:03lyubovbarphotography, nature, naturephotography, travel, photofeed19$4.940%$0$0$072.287
2342018-09-16 09:11:51sharinglifebusy, photography, health, poetry, sharinglife6$02.33%$0$0$043.647
2352018-09-16 09:10:06lvpjuliospanish1$0100%$0$0$033.952
2362018-09-16 09:09:27raselhosensports, news, bd2$05.16%$0$0$038.461
2372018-09-16 09:08:03jzadmania1$0100%$0$0$062.23
2382018-09-16 09:06:33rhn268photography2$00.98%$0$0$058.831
2392018-09-16 05:55:45tanmaleeartisteem, paint, ilustrasion4$00%$0$0$038.561
2402018-09-16 05:52:57bil.pragmusic, live, slovensko, guitar, dtube12$0.0450.1%$0$0$058.38
2412018-09-16 05:33:09canon12life, health3$010.63%$0$0$030.656
2422018-09-16 05:24:30brittandjosielife, blog, present, children, fouroclocky14$0.1630.04%$0$0$055.021
2432018-09-16 05:23:48amusdnomphotography2$00.53%$0$0$056.456
2442018-09-16 05:23:12katy24life, travel, trending, blog, hot8$00.27%$0$0$039.08
2452018-09-16 05:21:21ahmedjonypartiko, cell, phone, crimes, Indonesia10$0.0260.22%$0$0$036.208
2462018-09-16 05:19:57familytreeactifit3$0.1340.05%$0$0$046.844
2472018-09-16 05:19:45familytreevocab-ability3$0.1360.05%$0$0$046.844
2482018-09-16 05:08:27najlepartiko3$07.44%$0$0$032.717
2492018-09-16 05:03:51edryne678sports, filipino, woman, truth, peace4$0.080.08%$0$0$040.099
2502018-09-16 05:00:27brenda22dtube0$00%$0$0$039.048
2512018-09-16 04:58:57brenda22dtube, gamming, spanish, dlive37$0.0410.15%$0$0$039.048
2522018-09-16 03:03:39raselhosenbusy, day2$048.66%$0$0$038.461
2532018-09-16 02:54:42cosmiccrimesesteem1$0100%$0$0$042.868
2542018-09-16 02:54:27apnigrichcat, esteem, esteem-university, dailypetphotography, dpet39$0.7650.01%$0$0$063.309
2552018-09-16 02:30:54annephilbrickhot2$00.48%$0$0$045.61
2562018-09-16 02:30:18annephilbrickhomesteading2$00.95%$0$0$045.61
2572018-09-16 02:30:03steven-patrickcolorchallenge, saturdayindigo3$011.48%$0$0$061.863
2582018-09-16 01:52:27bambinotvphoto, photography, picture, resteem, berry, partiko21$0.2170.03%$0$0$040.867
2592018-09-16 01:42:39weirdnewspunchline, funny, humor43$11.1320%$0$0$058.226
2602018-09-16 01:42:27onepercentbetterbitcoin, cryptocurrency, timm, singapore, busy29$16.0690%$0$0$068.411
2612018-09-16 01:41:48earthcustodiansinformationwar, activism, ai, science, freedom157$7.8030%$0$0$058.763
2622018-09-16 01:37:30crescendoofpeacepoetry2$00.47%$0$0$059.043
2632018-09-16 01:37:03katrina-arielopenmic3$0.0390.16%$0$0$060.366
2642018-09-16 01:35:57sharinglifetoday, smartphonephotography, good-karma, poetry, sharinglife6$04.09%$0$0$043.647
2652018-09-16 01:17:39majes.tytytyjapan, notes-tatamimats, culturevulture, life, travel87$81.0210%$0$0$072.47
2662018-09-16 01:16:57samstonehillatlantis, ancient, human, history, legend50$11.5290%$0$0$071.838
2672018-09-15 23:58:45benfreedart, click, pictures, curious, partiko4$07.44%$0$0$037.364
2682018-09-15 23:39:27sagitta6cars12$0.0260.23%$0$0$046.34
2692018-09-15 23:39:15jfrattocrypto, trading, dlive, dtube, dtv5$017.88%$0$0$031.185
2702018-09-15 23:38:24daltonomusic, edm, dubstep, video, dailytune13$0.1240.05%$0$0$067.504
2712018-09-15 23:38:12dappcasteos, crypto, dapps, cryptocurrency, tribesteemup181$10.3810%$0$0$054.46
2722018-09-15 23:38:03craignowmachine71$29.7060%$0$0$068.036
2732018-09-15 23:37:54westcountrycleggadventure, metaldetecting25$3.970%$0$0$059.951
2742018-09-15 23:37:48phoenixwrenfail, walkwithme, hermitlife15$0.5510.01%$0$0$059.453
2752018-09-15 23:37:42runningprojectrunningproject, runneroftheweek, running, life, sports22$0.7260.01%$0$0$054.042
2762018-09-15 23:37:30joy2018tcn, photography, christian-trail22$1.6470%$0$0$060.848
2772018-09-15 23:37:27reabusy, cn, food, life84$36.890%$0$0$072.253
2782018-09-15 23:27:03princeuk12busy2$08.36%$0$0$037.846
2792018-09-15 23:26:15cosmiccrimesarchitecturalphotography, photography, life, outdoors19$0.0460.15%$0$0$042.868
2802018-09-15 23:26:00annephilbrickcolorchallenge, nature, saturdayindigo, photography, life8$00.2%$0$0$045.61
2812018-09-15 23:24:21goodideatyphoon, mangkhut17$0.0630.11%$0$0$035.454
2822018-09-15 23:24:00nadjetteflowers, nature, photography, beautiful, blog10$0.0240.31%$0$0$038.43
2832018-09-15 20:14:39goodideamodern, painting, ink9$0.0540.1%$0$0$035.454
2842018-09-15 20:03:06johnstaffswipe, ico, token, eth, btc15$0.020.25%$0$0$049.342
2852018-09-15 19:52:51marcosespes1spanish, cervantes, steemeitcanarias, art, introducingafriend4$00.32%$0$0$061.687
2862018-09-15 19:50:42goodideatyphoon, mangkhut19$0.0720.08%$0$0$035.454
2872018-09-15 19:50:15elevator09photography, food, blog, busy, health273$00%$0$0$069.555
2882018-09-15 19:39:39kennyroylife2$00.49%$0$0$061.654
2892018-09-15 19:38:18yidnethmusic, sma, ftlob, thealliance58$5.3120%$0$0$062.766
2902018-09-15 19:38:03enginewittythealliance, steemitramble, wordswithwitty, dlive, podcast75$2.1570%$0$0$064.96
2912018-09-15 19:37:51emjoefridayskyblue, colorchallenge, busy, natural, nature24$7.5450%$0$0$065.022
2922018-09-15 19:37:36trufflepigsteemit, curation, bots, technology, community26$0.3190.02%$0$0$056.578
2932018-09-15 19:37:12benfreedpartiko, sup, steem, cool14$0.0270.24%$0$0$037.364
2942018-09-15 19:37:03kaerpediemfoodmodel, steemitmamas, steemitbloggers, teammalaysia, yummy149$1.4020.01%$0$0$058.196
2952018-09-15 19:36:51krazypoetanaheim, packinghouse, foodcourt, bitcoin, thealliance, steepshot87$0.90.01%$0$0$056.963
2962018-09-15 19:35:18durendraphotography, flower, nature, photocontest16$0.130.05%$0$0$041.982
2972018-09-15 19:35:03umeshvbphotography, flowers, umeshvb, steemit, indian3$012.45%$0$0$035.185
2982018-09-15 17:17:15marcoteixeiramonomad, monochromes, petals, photocircle, photofriend11$0.0960.06%$0$0$048.334
2992018-09-15 17:15:21david777111deepstate, flatearth, scripture, firmament, earth35$0.1940.03%$0$0$055.469
3002018-09-15 17:14:09bersihartisteem, aksal, animal, life3$07.84%$0$0$034.712
3012018-09-15 16:07:15mintubanaphotography, nature, partiko20$0.2770.02%$0$0$040.351
3022018-09-15 16:01:12kpd-244steemhunt, technology, gadgets, tran74$0.0780.06%$0$0$053.387
3032018-09-15 16:00:57kelitasahliahreligion, spirituality, life, science, blog5$00.59%$0$0$049.253
3042018-09-15 16:00:42eos.swedenintroduceyourself, telos, eos, blockchain, blockproducer7$0.5260.01%$0$0$051.786
3052018-09-15 16:00:36qualitymemesqualitymemes, meme, steemitlabs2$0.4370.01%$0$0$058.367
3062018-09-15 16:00:27taifkhansmoking, health, treatment135$36.4710%$0$0$063.051
3072018-09-15 16:00:18moongirlelegance, artzone, eye4art, theluvbug, slothicorn17$0.3840.02%$0$0$045.915
3082018-09-15 16:00:12larryphangman, united, epl, prediction7$0.4560.01%$0$0$064.243
3092018-09-15 15:59:54skyleapjapanese, busy, blog57$8.0240%$0$0$065.129
3102018-09-15 15:58:30altobitbusy, kr, kr-event, jjangjjangman6$0.2570.03%$0$0$058.683
3112018-09-15 15:58:15jufriadiitraveling, esteem, photography, nature, wafrica20$0.480.01%$0$0$053.459
3122018-09-15 15:58:06avancedog, steemit, busy, animals, life5$2.8770%$0$0$050.088
3132018-09-15 15:57:39faceratesface, life, facerates, angrychicken3$0.0290.25%$0$0$055.109
3142018-09-15 15:57:21tasteem-thtasteem, contest, tasteem-th, thailand, restaurant32$22.3260%$0$0$059.973
3152018-09-15 15:57:15ladymaharetlife, love, university, family, busy16$1.30.01%$0$0$059.241
3162018-09-15 15:56:48tatjanastanlife, paris, exciting, business, adventure24$2.5110%$0$0$066.384
3172018-09-15 15:56:33kinakomochitasteem, tasteem-jp, busy, partiko, japanese123$17.9140%$0$0$067.35
3182018-09-15 15:56:24honeyduelife, literature, movies, art, story262$10.0390%$0$0$063.167
3192018-09-15 15:54:54a-alicecontest, steemit, reward, steem, gift93$20.5120%$0$0$066.907
3202018-09-15 15:54:06lightningjohnexercise, exercise, walking, fitness, health, steps, , actifit47$0.320.02%$0$0$047.535
3212018-09-15 15:53:48bergek123esteem, aceh, writing, life, indonesia5$0.0560.14%$0$0$042.3
3222018-09-15 15:53:42ayethatmonsteemitblogger, good-karma, life, msu7$0.1070.07%$0$0$043.533
3232018-09-15 15:51:24swedishdragongoldenhourphotography, busy, whalepower, photofeed, music61$4.4540%$0$0$059.981
3242018-09-15 15:51:06edy90old-now, life, writing, busy, steemit13$0.1290.07%$0$0$057.532
3252018-09-15 15:49:45havok777life3$0.2380.04%$0$0$066.551
3262018-09-15 15:49:03kelly12food, madrid, spain, paella26$0.0560.15%$0$0$042.423
3272018-09-15 15:48:45annephilbrickartzone, nature, life, dream, creative10$0.0730.13%$0$0$045.61
3282018-09-15 15:48:27nadjetteflowers, nature, picture, photography, beautiful8$00.88%$0$0$038.43
3292018-09-15 15:48:03durendraphotography, nature, flower, monsoon24$0.2220.04%$0$0$041.982
3302018-09-15 15:47:51teatreebusy, australia, property15$0.0510.19%$0$0$060.951
3312018-09-15 15:47:36allinduesseldorfphotography, travel, life, city, architecture12$00.09%$0$0$053.496
3322018-09-15 15:47:06rebergecho, alexa, amazon, communication, breakdown1$00%$0$0$039.859
3332018-09-15 15:46:48wojtczak.photobusy2$012.73%$0$0$047.35
3342018-09-15 15:46:45farhan.sidiquibusy1$0100%$0$0$063.941
3352018-09-15 15:46:36aenorbusy, britain14$0.0230.47%$0$0$060.406
3362018-09-15 08:25:48moewaikamawetmyanmar, mon, king, rajadhiraj9$00.11%$0$0$048.269
3372018-09-15 08:12:12sharinglifesociety, myanmar, story, photofeed, sharinglife9$02.31%$0$0$043.647
3382018-09-15 08:04:03mrchocoboriderlearnchinese, cn, languagelearning, vlog, dtube3$07.05%$0$0$042.667
3392018-09-15 08:03:36nadjettecolourfulphotography2$016.02%$0$0$038.43
3402018-09-15 08:02:45visterhookbusy1$0100%$0$0$062.896
3412018-09-15 08:02:09orianarosalesita1$0100%$0$0$042.931
3422018-09-15 06:40:57sharinglifenature, bitcoin, blog, science, sharinglife6$03.78%$0$0$043.647
3432018-09-15 06:36:21jumisharmaphotography1$0100%$0$0$044.385
3442018-09-15 06:36:06havok777life4$0.2550.03%$0$0$066.551
3452018-09-15 06:33:36royalmacroseventydaysblacknwhite, onebwdaily, photography, nature, busy49$6.8630%$0$0$072.111
3462018-09-15 06:32:39kekslife, photography, busy, art, graffiti27$0.4960.02%$0$0$053.894
3472018-09-15 06:31:42steemitfictionlife3$00.01%$0$0$059.974
3482018-09-15 06:31:03ambulorbisambulorbis, 7$2.5890%$0$0$061.798
3492018-09-15 06:30:39ua-promoterua, ukraine, steem, steemit, ua-promoter15$1.6880%$0$0$059.803
3502018-09-15 06:29:33anilkumar125469photography, life13$13.7660%$0$0$065.287
3512018-09-15 06:27:27doctorbishoptr, edebiyat, az59$3.3380%$0$0$059.575
3522018-09-15 06:27:21sandstormbusy, quoteoftheday, dailyquotes, inspiration, lifestyle7$0.8180.01%$0$0$066.411
3532018-09-15 06:27:15samstonehilldailyquotes, joy, photography, spirituality, nature21$0.8670.01%$0$0$071.838
3542018-09-15 06:26:27feuerelfeanimalphotography, deutsch, animals, dog, blog14$0.0850.1%$0$0$052.577
3552018-09-15 06:06:54annephilbrickphotography, goldenhourphotography, sunset, love, life8$0.0360.24%$0$0$045.61
3562018-09-15 06:06:33havok777poetry4$0.250.03%$0$0$066.551
3572018-09-15 06:02:33bambinotvphotography1$0100%$0$0$040.867
3582018-09-14 23:47:30craignowcooking, food, chef54$45.6860%$0$0$068.036
3592018-09-14 23:46:00mercvrivsbitcoin5$0.3470%$0$0$054.746
3602018-09-14 23:45:48tattoodjayteamnz, busy, photofriend, pc-travel, photochaincommunity103$2.720%$0$0$065.928
3612018-09-14 23:45:33onepercentbettermorning, habits, productivity, busy, ulog32$6.5080%$0$0$068.411
3622018-09-14 23:42:39holyspriteart, painting, illustration, drawing, creative8$0.0280.2%$0$0$031.585
3632018-09-14 23:35:30offgridlifened, steemit, hair, whatsup, partiko9$0.6380.01%$0$0$064.523
3642018-09-14 23:35:21bambinotvnature, beautiful, life, flowers, partiko9$00.29%$0$0$040.867
3652018-09-14 23:34:30offgridlifehot, winter, weather, snow, partiko19$0.0370.17%$0$0$064.523
3662018-09-14 22:05:48annephilbrickmusic2$0.0270.2%$0$0$045.61
3672018-09-14 21:49:27mrchocoboridernature, photography, pc-nature, blog, funny3$04.66%$0$0$042.667
3682018-09-14 21:37:03visterhookbusy2$011.39%$0$0$062.896
3692018-09-14 21:30:51setik-001portraitphotography, photography, ua, busy9$00.32%$0$0$048.145
3702018-09-14 21:16:33katrina-arielopenmic, originalmusic, love, music, thealliance228$2.4710%$0$0$060.366
3712018-09-14 21:01:18reberglife, photo, autumn, sunshine, thawing3$06.4%$0$0$039.859
3722018-09-14 20:55:54nadjetteflowers, nature, photography, beautiful, blog8$00.44%$0$0$038.43
3732018-09-14 20:55:30bambinotvpartiko, butterfly, dreams, life, nature17$0.0890.06%$0$0$040.867
3742018-09-14 20:25:03bgdanyesteem, animalphography, gardening, spanish, motivation17$1.0690.01%$0$0$046.028
3752018-09-14 20:08:42orl4ndophotography, travel, life, france, smartphonephotography, partiko17$0.1050.05%$0$0$051.221
3762018-09-14 19:55:24setik-001news, health, food, ua, busy8$0.0210.27%$0$0$048.145
3772018-09-14 19:42:33nadjetteflowers, nature, photography, beautiful, blog9$00.41%$0$0$038.43
3782018-09-14 19:42:27nadjettefood, cooking, foodphotography, photography, life14$0.0230.23%$0$0$038.43
3792018-09-14 19:42:00bambinotvnature1$0100%$0$0$040.867
3802018-09-14 19:40:27offgridlifemotivation1$0100%$0$0$064.523
3812018-09-14 19:37:54rabiagilaniesteem, esteemapp, good-karma, steemit, indonesia23$0.1020.05%$0$0$044.84
3822018-09-14 19:37:06nadjetteflowers, nature, photography, beautiful, blog9$00.34%$0$0$038.43
3832018-09-14 19:36:54setik-001streetphotography, photography, ua, busy12$0.1130.06%$0$0$048.145
3842018-09-14 19:36:30nadjettearchitecture, development, photography, travel, tourism8$00.66%$0$0$038.43
3852018-09-14 19:36:21rabiagilaniactifit55$3.6020%$0$0$044.84
3862018-09-14 17:51:57setik-001art, elegance, arzone, ua, busy13$0.0550.1%$0$0$048.145
3872018-09-14 17:37:30nadjettearchitecture, development, photography, travel, tourism9$00.51%$0$0$038.43
3882018-09-14 17:36:18nageshwar0369art, painting, nature, artzone, ocd-resteem38$0.140.04%$0$0$056.544
3892018-09-14 17:12:24thomas10life, tree, nature, steepshot37$0.5990.01%$0$0$055.917
3902018-09-14 17:12:21nangthiribusy, life, poen, writing7$0.0610.09%$0$0$037.123
3912018-09-14 16:44:42dobartimpoetry, esoteric, love, steemschools, soulpoetry26$6.9750%$0$0$072.971
3922018-09-14 16:32:03saarinoutart, story, blog, amazing, esteem38$12.940%$0$0$064.446
3932018-09-14 16:24:27sharinglifelove, story, elegance, zappl, sharinglife6$02.58%$0$0$043.647
3942018-09-14 16:10:33andimalariasteemit, world-variety, saudi-arabia, women15$0.0370.15%$0$0$048.487
3952018-09-14 16:10:12nathen007followfriday, steemit, life, blog, quality28$15.4160%$0$0$059.838
3962018-09-14 16:09:57atta09esteem, macro, whalepower, photography, life27$1.8670%$0$0$060.334
3972018-09-14 16:09:51schibaesteem, fridayskyblue, colorchallenge, photography, life7$0.0180.3%$0$0$047.823
3982018-09-14 16:09:27d-vinedsound, music, msp-waves, minnowsupport, blockchain31$6.3070%$0$0$063.022
3992018-09-14 16:09:03positivesteemua, teammalaysia, poem, poetry, nature13$8.5660%$0$0$065.449
4002018-09-14 15:55:24kamrunnaharbusy1$0100%$0$0$045.81
4012018-09-14 15:55:09ohmygoodnesslife, funny, entertainment, blog, meme4$01.67%$0$0$037.4
4022018-09-14 15:54:30steven-patrickcolorchallenge2$034.68%$0$0$061.863
4032018-09-14 15:54:00mintubanaphotography, nature, partiko20$0.1040.06%$0$0$040.351
4042018-09-14 15:53:00offgridlifephotography, autumn, canada, river, partiko18$0.130.05%$0$0$064.523
4052018-09-14 13:35:48mrchocoboridernature, photography, pc-nature, blog, life4$03.21%$0$0$042.667
4062018-09-14 13:35:27lightsplasherlife, photography, smartphonephotography, blog, nature80$2.0480%$0$0$065.701
4072018-09-14 13:13:33cosmiccrimesarchitecturalphotography, photography, photo, life, outdoors10$0.020.28%$0$0$042.868
4082018-09-14 13:07:00bgdanysupport, minnows, supportminnows2$07.87%$0$0$046.028
4092018-09-14 13:06:24annephilbrickcolorchallenge, photography, architecturalphotography, life, fridayblue9$0.0440.13%$0$0$045.61
4102018-09-14 13:04:21miroslavrcphotography, teamserbia, blog, photofeed, photomag101$1.3480%$0$0$059.483
4112018-09-14 13:04:09edryne678woman, basketball, partiko, sports, information14$0.1320.05%$0$0$040.099
4122018-09-14 13:03:54pinkfuzzpinkfuzz, photography, oldbuildings, blog, life20$00%$0$0$065.098
4132018-09-14 13:03:03amadekdlive, dlive-video, Other, kayaks, travel, polish, pl-travel, kayaking3$04.97%$0$0$037.517
4142018-09-14 13:02:39elziabusy, artzone, neoxian, puncakbukit, esteem, partiko7$0.0280.22%$0$0$037.355
4152018-09-14 13:01:06najamfxstory, history, steem, steembd16$14.7030%$0$0$057.107
4162018-09-14 13:00:45newmanjosueart, sculpture, hands, giants53$4.5790%$0$0$059.853
4172018-09-14 13:00:24prakashghaishadow, shadows, shadowphotography, naturephotography, india6$0.610.01%$0$0$062.909
4182018-09-14 13:00:09tr1csea, photo62$0.1570.04%$0$0$050.007
4192018-09-14 12:58:54bigram13weather, crazy, life, busy42$17.9090%$0$0$071.103
4202018-09-14 12:58:21amy-goodrichfood, health, vegan, recipe, makeithealthy228$6.0560%$0$0$069.685
4212018-09-14 12:58:00acinaddlike, dlike-travel, travel, philippines, life17$0.0620.11%$0$0$057.35
4222018-09-14 12:57:45cassyjanineesteem, ulog, artzone, drawing, philippines11$0.0780.09%$0$0$054.962
4232018-09-14 12:56:12turkishcrewstreetphotography, esteem, tr, cointurk, photocircle41$0.8340.01%$0$0$058.882
4242018-09-14 12:55:12singaphotocircle, travel, nature, photofeed, busy24$1.9320%$0$0$062.566
4252018-09-14 12:54:15offgridlifebusy, colorchallenge, friday, blue, photo14$0.5340.01%$0$0$064.523
4262018-09-14 12:53:30mannacurrencydlike, dlike-basicincome, eos, cryptocurrency, blockchain103$0.9820.01%$0$0$060.316
4272018-09-14 12:53:00veryspiderdrawing, teamaustralia, artzone, anime, superhero150$3.1750%$0$0$061.163
4282018-09-14 12:52:45minyooljjangjjangman, busy18$6.2790%$0$0$062.032
4292018-09-14 12:36:09afawad512busy4$0.1070.08%$0$0$048.535
4302018-09-14 12:36:00kaleem345busy1$0100%$0$0$060.116
4312018-09-14 12:35:45visterhookphoto1$0100%$0$0$062.896
4322018-09-14 12:34:21omoriomoricrypto2$011.56%$0$0$017.795
4332018-09-14 12:34:00omoriomoriprivacy0$00%$0$0$017.795
4342018-09-14 12:32:12rebergphotography, fireworks, independence, day, night5$0.0450.2%$0$0$039.859
4352018-09-14 12:31:54amsarsteemit, steem, news, life, viral4$00.95%$0$0$038.85
4362018-09-14 12:30:57vijaybshadowphoto, photography, new19$0.0350.25%$0$0$037.944
4372018-09-14 12:30:39jhoniesteem, steem, whalepower, steemhq, esteemapp45$0.9650.01%$0$0$053.113
4382018-09-14 12:30:21kelly12photography1$0100%$0$0$042.423
4392018-09-14 04:27:57zein0401photography, life, steem, esteem, aceh4$03.22%$0$0$039.289
4402018-09-14 04:13:51mauritiusphotoslife, photography, mauritius, quatrebornes, church, bank, steepshot13$0.030.15%$0$0$034.032
4412018-09-14 04:06:36givesaminutevlog, sydney, birchgrove, ballast point park, dtube3$07.87%$0$0$048.019
4422018-09-14 04:06:15marabarabusy, kr-steemmonsters, interesteem, jjangjjangman, kr23$7.4810%$0$0$063.108
4432018-09-14 04:05:12gooddreamfitness, getyerlearnon, australia50$42.240%$0$0$073.797
4442018-09-14 04:05:00yasu24tasteem, tasteem-jp, japanese, busy, food84$00%$0$0$064.218
4452018-09-14 04:04:54strangestwistfun, entertainment, facts, quote5$00.02%$0$0$051.846
4462018-09-14 04:04:45niddumuluweku, indonesia133$0.0930.07%$0$0$051.491
4472018-09-14 04:04:00borepsteinnews, firstresponders, emergency, massachusetts, newengland32$13.3410%$0$0$068.978
4482018-09-14 04:02:54runburgundyhiking, fitnation, fitness, cycling, running15$0.1210.05%$0$0$047.665
4492018-09-14 03:59:06artpowerelegance, artzone, ocd-resteem, curie, sndbox10$0.5210.01%$0$0$045.267
4502018-09-14 03:55:48moewaikamawetmyanmar, peaceful, thing, intelligent, obey55$00.03%$0$0$048.269
4512018-09-14 03:52:42technosmgsc, world, people, picture6$00.68%$0$0$036.915
4522018-09-14 03:04:21sharinglifenature, bitcoin, blog, science, sharinglife9$01.07%$0$0$043.647
4532018-09-14 02:59:09sharinglifegiveaway1$0100%$0$0$043.647
4542018-09-14 02:53:57alienprincessphotocircle2$0.020.3%$0$0$023.46
4552018-09-14 02:52:42jhoniartisteem, portraitphotography, tasteem, steemhq, aceh37$0.0990.07%$0$0$053.113
4562018-09-14 02:52:27annephilbrickphotography, goldenhourphotography, sunset, life, nature6$00.24%$0$0$045.61